Location: Capel Gartheli
(52.1833°N, 4.0667°W)
Time: 09:36:20
(UTC+00:00)

USA 215 - Pass Details

Date: 18 February 2020
Orbit: 1098 x 1110 km, 123.0° (Epoch: 08 March)

Event Time Altitude Azimuth Distance (km) Brightness Sun altitude
Rises 05:55:58 0° 80° (E) 3,917 7.9 -14.5°
Reaches altitude 10° 05:58:28 10° 77° (ENE) 2,961 6.8 -14.2°
Maximum altitude 06:04:51 59° 0° (N) 1,260 3.6 -13.2°
Enters shadow 06:10:15 15° 286° (WNW) 2,596 4.6 -12.4°
